Regional Weather Roundup
Issued by NWS Charleston, SC

Current Version | Previous Version | Text Only | Print | Product List | Glossary Off
Versions: 1 2 3 4 5 6 7 8 9 10 11 12 13 14 15 16 17 18 19 20 21 22 23 24 25 26 27 28 29 30 31 32 33 34 35 36 37 38 39 40 41 42 43 44 45 46 47 48 49 50

000
ASUS42 KCHS 220425
RWRCHS

REGIONAL WEATHER ROUNDUP
NATIONAL WEATHER SERVICE CHARLESTON SC
1100 PM EST SUN DEC 21 2014

NOTE: "FAIR" INDICATES FEW OR NO CLOUDS BELOW 12,000 FEET WITH NO
SIGNIFICANT WEATHER AND/OR OBSTRUCTIONS TO VISIBILITY.

NOT ALL STATIONS ARE QUALITY CONTROLLED BY THE NATIONAL
WEATHER SERVICE. USE DATA WITH CAUTION...ESPECIALLY
DEWPOINT OBSERVATIONS.

SCZ027-030-031-034>040-042>050-220500-
...SOUTHEAST SOUTH CAROLINA...

CITY           SKY/WX    TMP DP  RH WIND       PRES   REMARKS
N CHARLESTON   LGT RAIN  46  45  93 NE7       30.10F
WATERFRONT PRK NOT AVBL
MOUNT PLEASANT DRIZZLE   48  48 100 NE5       30.10S
PINOPOLIS        N/A     48  45  87 NE12      30.05F
MONCKS CORNER  RAIN      46  45  93 NE6       30.11F
SUMMERVILLE    DRIZZLE   46  46 100 N3        30.12F
BEAUFORT MCAS  CLOUDY    48  46  93 N8        30.11S
BEAUFORT ARPT  DRIZZLE   48  48 100 NW8       30.10R
HILTON HEAD IS CLOUDY    50  50 100 N10G16    30.12R
WALTERBORO     DRIZZLE   46 N/A N/A NE7       30.11F
ALLENDALE      CLOUDY    48  46  93 VRB6      30.09F FOG

...SOUTHERN MIDLANDS AND PEE DEE...

CITY           SKY/WX    TMP DP  RH WIND       PRES   REMARKS
GEORGETOWN     NOT AVBL
KINGSTREE      NOT AVBL
ORANGEBURG     CLOUDY    47  43  86 N8        30.13S
BARNWELL       DRIZZLE   46  46 100 NE8       30.11F
AIKEN          HVY RAIN  45  45 100 NE8       30.16S
MANNING        NOT AVBL
COLUMBIA       LGT RAIN  48  45  89 CALM      30.16S FOG
SUMTER         LGT RAIN  46  43  87 NE12      30.12F
FLORENCE       CLOUDY    48  38  68 E9        30.17S
MYRTLE BEACH   CLOUDY    45  41  87 N9        30.15F
N MYRTLE BEACH LGT RAIN  45  41  86 NE10      30.14F

$$

GAZ063-065-086>088-099>101-113>116-118-119-134>141-150-220500-
...SOUTHEAST GEORGIA...

CITY           SKY/WX    TMP DP  RH WIND       PRES   REMARKS
SAVANNAH ARPT  CLOUDY    46  45  93 N7        30.11R
HUNTER AAF     CLOUDY    48  48 100 N7        30.08R
FORT STEWART   LGT RAIN  46  46 100 NE5       30.08F
STATESBORO     CLOUDY    46  46 100 NE5       30.11F
SYLVANIA       CLOUDY    46  46 100 E5        30.11F FOG
CLAXTON        CLOUDY    46  46 100 E5        30.10S

...CSRA...CENTRAL AND FAR SOUTHEAST GEORGIA...

CITY           SKY/WX    TMP DP  RH WIND       PRES   REMARKS
THOMSON        CLOUDY    49  48  99 NE8       30.16S
AUGUSTA-BUSH   LGT RAIN  47  46  97 NE7       30.11F FOG
AUGUSTA-DANIEL CLOUDY    48  46  93 NE7       30.13F
SWAINSBORO     CLOUDY   N/A N/A N/A E5        30.10S
VIDALIA        CLOUDY    46  46 100 E9        30.09F FOG
EASTMAN        CLOUDY    47  47 100 E5        30.10S FOG
HAZLEHURST     CLOUDY    48  48 100 E5        30.08F FOG
ALMA           CLOUDY    49  47  93 VRB3      30.09R
WAYCROSS       CLOUDY    53  53  99 NE6       30.08F
JESUP          CLOUDY    52  50  93 CALM      30.09F
BAXLEY         CLOUDY    50  46  87 E5        30.08F
BRUNSWICK      CLOUDY    54  52  94 NE3       30.07F
SAINT SIMONS   CLOUDY    55  54  96 N9        30.06R

$$

SCZ027-028-034-036>038-045-046-048>050-GAZ119-141-220500-
...LAKE AND SUPPLEMENTAL COASTAL OBSERVATIONS...

STATION/POSITION TIME  TEMP    WIND        PRES    WAVE   SWELL
                       AIR SEA DIR/SP/G            HT/PER HT/PER/DIR
                 (UTC) (F)     (DEG/KT/KT) (MB)    (FT/S) (FT/S/D)
UPR LAKE MARION  NOT AVBL
WINYAH BAY       0400   47      30/  9     1020.0S
LAKE MURRAY      0400   47      40/  2/  5 1020.7F
ACE BASIN NERRS  0400   47     360/  1     1019.0S
FORT PULASKI     0400   51 56  330/ 12/ 15 1019.2R
SAPELO ISLAND    0400   52      10/  7     1018.0R

$$

ANZ835-935-AMZ111-154-330-350-352-354-370-450-454-472-220500-
...C-MAN AND BUOY OBSERVATIONS...

STATION/POSITION TIME  TEMP    WIND        PRES    WAVE   SWELL
                       AIR SEA DIR/SP/G            HT/PER HT/PER/DIR
                 (UTC) (F)     (DEG/KT/KT) (MB)    (FT/S) (FT/S/D)
BUOY 41004       0400   65 70   50/ 21/ 25 1017.5F   8/ 7   2/15
BUOY 41008       0400   60 59   30/ 12/ 12 1016.5F   5/ 7   3/ 60/ 7
FOLLY BEACH CMAN 0400   52      40/ 20/ 23 1019.6F
CAPERS NEARSHORE 0300   52      70/ 21/ 25   N/A
FRIPP NEARSHORE  NOT AVBL


STATION/POSITION TIME  TEMP    WIND        PRES    WAVE   SWELL
                       AIR SEA DIR/SP/G            HT/PER HT/PER/DIR
                 (UTC) (F)     (DEG/KT/KT) (MB)    (FT/S) (FT/S/D)
5E ST. MARYS GA  0400      61                N/A     4/ 6
FRYING PAN BUOY  0400   60 71   50/ 21/ 25 1020.0S   8/ 7   2/ 60/12
BUOY 41025       0400   58                 1021.5F   4/ 5
CAPE LOOKOUT NC  0400   46      20/ 17/ 22 1021.5F
BUOY 41002       0305   71 72  100/ 16/ 17 1019.2    7/ 6   2/ 80/ 9
BUOY 41010       0400   75 77  180/ 14/ 17 1018.4R   4/ 8   3/ 10/ 8
ST AUGUSTINE FL  0400   60     260/  3/  3 1018.3F


$$


USA.gov is the U.S. government's official web portal to all federal, state and local government web resources and services.